Weather History for KFIG - September, 2013

Change the Weather History Date:

Monday, September 23, 2013

  Actual Average (KDUJ) Record (KDUJ)
Temperature  
Mean Temperature 53 °F 57 °F  
Max Temperature 61 °F 67 °F 84 °F (1970)
Min Temperature 43 °F 47 °F 33 °F (1974)
Degree Days  
Heating Degree Days 12 8  
Month to date heating degree days 113  
Since 1 July heating degree days 175  
Cooling Degree Days 0 0  
Month to date cooling degree days 28  
Year to date cooling degree days 359  
Growing Degree Days 3 (Base 50)    
Moisture  
Dew Point 41 °F    
Average Humidity 70    
Maximum Humidity 97    
Minimum Humidity 46    
Precipitation  
Precipitation 0.00 in 0.12 in 1.50 in (2000)
Month to date precipitation 2.87  
Sea Level Pressure  
Sea Level Pressure 30.11 in    
Wind  
Wind Speed 3 mph (North)    
Max Wind Speed 10 mph    
Max Gust Speed -    
Visibility 10 miles    
Events      
T = Trace of Precipitation, MM = Missing Value Source: NWS Daily Summary

Daily Weather History Graph

Daily Weather History Graph

Search for Another Location

Airport or City:

Trip Planner

Search our weather history database for the weather conditions in past years. The results will help you decide how hot, cold, wet, or windy it might be!

Date:

Astronomy

Sep. 23, 2013 Rise Set
Actual Time 7:02 AM EDT 7:08 PM EDT
Civil Twilight 6:34 AM EDT 7:36 PM EDT
Nautical Twilight 6:02 AM EDT 8:08 PM EDT
Astronomical Twilight 5:30 AM EDT 8:40 PM EDT
Moon 9:37 PM EDT (9/23) 11:22 AM EDT (9/23)
Length of Visible Light 13h 01m
Length of Day
12h 06m
Waning Gibbous, 81% of the Moon is Illuminated
Sep 23
Waning Gibbous
Sep 26
Last Quarter
Oct 4
New
Oct 11
First Quarter
Oct 18
Full

Hourly Weather History & Observations

Time (EDT) Temp. Windchill Dew Point Humidity Pressure Visibility Wind Dir Wind Speed Gust Speed Precip Events Conditions
12:54 AM 50.0 °F - 44.1 °F 80% 30.03 in 10.0 mi Calm Calm - N/A   Overcast
1:54 AM 48.9 °F - 44.1 °F 83% 30.03 in 10.0 mi Calm Calm - N/A   Overcast
2:54 AM 48.9 °F - 44.1 °F 83% 30.04 in 10.0 mi North 4.6 mph - N/A   Overcast
3:54 AM 48.0 °F - 42.1 °F 80% 30.05 in 10.0 mi North 5.8 mph - N/A   Overcast
4:54 AM 46.9 °F - 41.0 °F 80% 30.06 in 10.0 mi North 3.5 mph - N/A   Overcast
5:54 AM 46.9 °F - 39.0 °F 74% 30.08 in 10.0 mi North 5.8 mph - N/A   Overcast
6:04 AM 46.4 °F 45.2 °F 39.2 °F 76% 30.08 in 10.0 mi North 3.5 mph - N/A   Overcast
6:54 AM 46.0 °F 43.9 °F 37.9 °F 73% 30.10 in 10.0 mi NNE 4.6 mph - N/A   Overcast
7:54 AM 46.0 °F 44.8 °F 39.0 °F 76% 30.12 in 10.0 mi North 3.5 mph - N/A   Overcast
8:54 AM 46.9 °F - 37.9 °F 71% 30.14 in 10.0 mi North 3.5 mph - N/A   Overcast
9:54 AM 48.0 °F - 37.9 °F 68% 30.14 in 10.0 mi North 4.6 mph - N/A   Overcast
10:54 AM 50.0 °F - 37.9 °F 63% 30.15 in 10.0 mi Variable 5.8 mph - N/A   Overcast
11:20 AM 51.8 °F - 39.2 °F 62% 30.14 in 10.0 mi NNE 8.1 mph - N/A   Overcast
11:54 AM 51.1 °F - 37.9 °F 61% 30.15 in 10.0 mi North 10.4 mph - N/A   Mostly Cloudy
12:54 PM 55.0 °F - 39.0 °F 55% 30.14 in 10.0 mi Calm Calm - N/A   Mostly Cloudy
1:54 PM 57.0 °F - 39.9 °F 53% 30.12 in 10.0 mi Calm Calm - N/A   Scattered Clouds
2:54 PM 59.0 °F - 41.0 °F 51% 30.11 in 10.0 mi Calm Calm - N/A   Scattered Clouds
3:54 PM 60.1 °F - 39.9 °F 47% 30.09 in 10.0 mi NW 8.1 mph - N/A   Clear
4:54 PM 61.0 °F - 39.9 °F 46% 30.09 in 10.0 mi NW 6.9 mph - N/A   Clear
5:54 PM 60.1 °F - 41.0 °F 49% 30.10 in 10.0 mi NW 5.8 mph - N/A   Clear
6:54 PM 57.0 °F - 42.1 °F 57% 30.10 in 10.0 mi NW 4.6 mph - N/A   Clear
7:54 PM 51.1 °F - 44.1 °F 77% 30.12 in 10.0 mi NNW 4.6 mph - N/A   Clear
8:54 PM 46.9 °F - 44.1 °F 90% 30.13 in 10.0 mi NNW 4.6 mph - N/A   Clear
9:54 PM 46.9 °F - 43.0 °F 86% 30.14 in 10.0 mi NW 4.6 mph - N/A   Clear
10:54 PM 45.0 °F 42.6 °F 42.1 °F 90% 30.14 in 10.0 mi NNW 4.6 mph - N/A   Clear
11:54 PM 43.0 °F 41.3 °F 42.1 °F 97% 30.15 in 10.0 mi North 3.5 mph - N/A   Clear